2000 HZ23 

Epoch 2000 Apr. 26.0 TT = JDT 2451660.5                 Nakano

M 330.62165              (2000.0)            P               Q

n   0.50188234     Peri.  199.52127     -0.11946578     +0.96517674

a   1.5682000      Node    64.20714     -0.87310092     +0.00946611

e   0.2086647      Incl.   14.97979     -0.47267611     -0.26142734

P   1.96           H   19.8           G   0.15           U   *

Residuals in seconds of arc 

000427 699  0.6+  0.5-    000430 557  0.4-  0.2-    000504 704  0.1-  0.0   

000427 699  0.2+  0.7-    000430 557  0.2-  0.1-    000504 704  1.2+  0.1-  

000427 699  0.1+  0.4-    000501 046  0.4+  0.8-    000504 704  0.3+  0.9+  

000427 699  0.6+  0.5-    000501 046  0.6-  0.2-    000504 704  0.7+  0.5+  

000428 118  1.4+  0.1+    000501 046  0.5+  0.2+    000506 118  0.3+  0.2+  

000428 118  1.3+  0.8-    000501 046  1.0+  0.4+    000506 118  0.6+  0.6+  

000428 118  0.8+  0.4+    000501 402 (2.5-  0.9+)   000506 118  0.2-  0.0   

000429 673 (1.5-  2.0+)   000501 402  0.2-  0.7+    000506 118  0.0   0.5+  

000429 673  1.2-  1.5+    000501 402  1.6-  0.0     000507 691  0.2-  0.3-  

000429 673  0.6-  1.5+    000501 402  0.4-  0.2-    000507 691  0.1-  0.3-  

000429 422  1.9-  0.2+    000502 651  0.2+  0.2-    000507 691  0.0   0.3-  

000429 422  1.3-  1.0+    000502 651  0.1+  0.6-    000508 402  0.3+  0.6+  

000429 422  0.8-  0.7+    000502 651  0.0   0.5-    000508 402  1.0+  0.0   

000429 422  0.6+  0.7+    000503 046  0.1+  0.3-    000508 402  1.5-  0.1-  

000429 402  0.0   0.2-    000503 046  0.2+  0.9-    000509 691  0.1-  0.7-  

000429 402  0.6-  0.1-    000503 046  0.7+  0.0     000509 691  0.2-  0.8-  

000430 557  0.4+  0.1-    000503 046  0.7+  0.2-    000509 691  0.7-  1.4-  

000430 557  0.1-  0.5-    000503 557  0.1-  0.4-    000509 360  0.3+  0.7+  

000430 557  0.0   0.0     000503 557  0.0   0.2-    000509 360  0.5+  0.7+  

000430 557  0.5-  0.5-    000504 704  1.7-  0.6+    000509 360  0.1+  0.7+  

 

NAKANO

         **** Don't distribute anyone except personal use only ****

                (C) Copyright 2000 OAA/ComputingSection

write mail from CFAD0::NAKANO on 2000-05-11 02:40:35(JST).



–ß‚è‚Ü‚·B